Time,TemperatureF,DewpointF,PressureIn,WindDirection,WindDirectionDegrees,WindSpeedMPH,WindSpeedGustMPH,Humidity,HourlyPrecipIn,Conditions,Clouds,dailyrainin,SolarRadiationWatts/m^2,SoftwareType,DateUTC
2013-10-04 00:32:00,69.4,64.4,30.09,SSW,210,1.0,3.0,84,0.00,,,0.00,0,Wunderground v.1.15,2013-10-04 04:32:00,
2013-10-04 00:38:00,69.3,64.3,30.09,SSW,210,2.0,3.0,84,0.00,,,0.00,0,Wunderground v.1.15,2013-10-04 04:38:00,
2013-10-04 00:44:00,69.1,64.1,30.09,SSW,208,2.0,5.0,84,0.00,,,0.00,0,Wunderground v.1.15,2013-10-04 04:44:00,
2013-10-04 00:46:00,68.9,63.9,30.09,SSW,208,2.0,5.0,84,0.00,,,0.00,0,Wunderground v.1.15,2013-10-04 04:46:00,
2013-10-04 00:52:00,68.8,64.1,30.09,SSW,208,2.0,2.0,85,0.00,,,0.00,0,Wunderground v.1.15,2013-10-04 04:52:00,
2013-10-04 00:56:00,68.8,64.1,30.09,SSW,208,2.0,2.0,85,0.00,,,0.00,0,Wunderground v.1.15,2013-10-04 04:56:00,
2013-10-04 01:02:00,68.6,63.9,30.09,WSW,244,2.0,2.0,85,0.00,,,0.00,0,Wunderground v.1.15,2013-10-04 05:02:00,
2013-10-04 01:04:00,68.4,63.7,30.09,WSW,244,2.0,2.0,85,0.00,,,0.00,0,Wunderground v.1.15,2013-10-04 05:04:00,
2013-10-04 01:11:00,68.3,63.9,30.09,WSW,244,1.0,2.0,86,0.00,,,0.00,0,Wunderground v.1.15,2013-10-04 05:11:00,
2013-10-04 01:20:00,67.9,63.9,30.09,SW,230,2.0,2.0,87,0.00,,,0.00,0,Wunderground v.1.15,2013-10-04 05:20:00,
2013-10-04 01:22:00,67.9,63.9,30.09,SW,230,2.0,2.0,87,0.00,,,0.00,0,Wunderground v.1.15,2013-10-04 05:22:00,
2013-10-04 01:26:00,67.8,63.8,30.09,SW,230,2.0,3.0,87,0.00,,,0.00,0,Wunderground v.1.15,2013-10-04 05:26:00,
2013-10-04 01:28:00,67.8,63.8,30.09,WSW,240,2.0,3.0,87,0.00,,,0.00,0,Wunderground v.1.15,2013-10-04 05:28:00,
2013-10-04 01:32:00,67.8,64.1,30.09,SW,229,2.0,2.0,88,0.00,,,0.00,0,Wunderground v.1.15,2013-10-04 05:32:00,
2013-10-04 01:38:00,67.6,63.9,30.09,WSW,247,2.0,3.0,88,0.00,,,0.00,0,Wunderground v.1.15,2013-10-04 05:38:00,
2013-10-04 01:44:00,67.6,63.9,30.09,SW,219,2.0,2.0,88,0.00,,,0.00,0,Wunderground v.1.15,2013-10-04 05:44:00,
2013-10-04 01:50:00,67.4,63.7,30.09,WSW,244,2.0,3.0,88,0.00,,,0.00,0,Wunderground v.1.15,2013-10-04 05:50:00,
2013-10-04 01:56:00,67.4,64.0,30.09,WSW,244,3.0,3.0,89,0.00,,,0.00,0,Wunderground v.1.15,2013-10-04 05:56:00,
2013-10-04 02:02:00,67.4,64.0,30.10,South,191,2.0,2.0,89,0.00,,,0.00,0,Wunderground v.1.15,2013-10-04 06:02:00,
2013-10-04 02:08:00,67.4,64.0,30.10,SW,236,2.0,2.0,89,0.00,,,0.00,0,Wunderground v.1.15,2013-10-04 06:08:00,
2013-10-04 02:14:00,67.4,64.0,30.10,SSW,210,2.0,2.0,89,0.00,,,0.00,0,Wunderground v.1.15,2013-10-04 06:14:00,
2013-10-04 02:20:00,67.4,64.0,30.09,SW,215,2.0,2.0,89,0.00,,,0.00,0,Wunderground v.1.15,2013-10-04 06:20:00,
2013-10-04 02:26:00,67.4,64.0,30.09,SW,215,1.0,2.0,89,0.00,,,0.00,0,Wunderground v.1.15,2013-10-04 06:26:00,
2013-10-04 02:32:00,67.4,64.0,30.09,SW,215,1.0,1.0,89,0.00,,,0.00,0,Wunderground v.1.15,2013-10-04 06:32:00,
2013-10-04 02:38:00,67.4,64.0,30.09,SW,215,1.0,2.0,89,0.00,,,0.00,0,Wunderground v.1.15,2013-10-04 06:38:00,
2013-10-04 02:44:00,67.3,63.9,30.09,SW,215,1.0,2.0,89,0.00,,,0.00,0,Wunderground v.1.15,2013-10-04 06:44:00,
2013-10-04 02:50:00,67.1,63.7,30.09,SW,215,1.0,1.0,89,0.00,,,0.00,0,Wunderground v.1.15,2013-10-04 06:50:00,
2013-10-04 02:56:00,66.9,63.6,30.09,SW,215,1.0,1.0,89,0.00,,,0.00,0,Wunderground v.1.15,2013-10-04 06:56:00,
2013-10-04 03:02:00,66.8,63.8,30.09,SW,215,1.0,1.0,90,0.00,,,0.00,0,Wunderground v.1.15,2013-10-04 07:02:00,
2013-10-04 03:08:00,66.6,63.6,30.09,SW,215,1.0,1.0,90,0.00,,,0.00,0,Wunderground v.1.15,2013-10-04 07:08:00,
2013-10-04 03:14:00,66.4,63.4,30.09,SW,215,1.0,1.0,90,0.00,,,0.00,0,Wunderground v.1.15,2013-10-04 07:14:00,
2013-10-04 03:20:00,66.3,63.6,30.09,SW,215,1.0,3.0,91,0.00,,,0.00,0,Wunderground v.1.15,2013-10-04 07:20:00,
2013-10-04 03:26:00,66.1,63.4,30.09,SW,215,1.0,1.0,91,0.00,,,0.00,0,Wunderground v.1.15,2013-10-04 07:26:00,
2013-10-04 03:32:00,66.0,63.3,30.09,SW,215,1.0,1.0,91,0.00,,,0.00,0,Wunderground v.1.15,2013-10-04 07:32:00,
2013-10-04 03:38:00,66.0,63.3,30.09,SW,215,1.0,1.0,91,0.00,,,0.00,0,Wunderground v.1.15,2013-10-04 07:38:00,
2013-10-04 03:44:00,65.8,63.4,30.09,SW,215,1.0,1.0,92,0.00,,,0.00,0,Wunderground v.1.15,2013-10-04 07:44:00,
2013-10-04 03:50:00,65.8,63.4,30.09,SW,215,1.0,2.0,92,0.00,,,0.00,0,Wunderground v.1.15,2013-10-04 07:50:00,
2013-10-04 03:56:00,65.8,63.7,30.09,SW,215,1.0,1.0,93,0.00,,,0.00,0,Wunderground v.1.15,2013-10-04 07:56:00,
2013-10-04 04:02:00,65.8,63.7,30.09,SW,215,1.0,1.0,93,0.00,,,0.00,0,Wunderground v.1.15,2013-10-04 08:02:00,
2013-10-04 04:08:00,65.8,63.7,30.09,SW,215,1.0,1.0,93,0.00,,,0.00,0,Wunderground v.1.15,2013-10-04 08:08:00,
2013-10-04 04:14:00,65.6,63.5,30.09,SW,215,0.0,1.0,93,0.00,,,0.00,0,Wunderground v.1.15,2013-10-04 08:14:00,
2013-10-04 04:20:00,65.5,63.4,30.09,SW,215,0.0,1.0,93,0.00,,,0.00,0,Wunderground v.1.15,2013-10-04 08:20:00,
2013-10-04 04:26:00,65.3,63.2,30.09,SW,215,0.0,0.0,93,0.00,,,0.00,0,Wunderground v.1.15,2013-10-04 08:26:00,
2013-10-04 04:32:00,65.2,63.1,30.09,SW,215,0.0,0.0,93,0.00,,,0.00,0,Wunderground v.1.15,2013-10-04 08:32:00,
2013-10-04 04:38:00,65.0,62.9,30.09,SW,215,0.0,0.0,93,0.00,,,0.00,0,Wunderground v.1.15,2013-10-04 08:38:00,
2013-10-04 04:44:00,64.8,62.7,30.09,SW,215,0.0,0.0,93,0.00,,,0.00,0,Wunderground v.1.15,2013-10-04 08:44:00,
2013-10-04 04:50:00,64.7,62.6,30.09,SW,215,0.0,2.0,93,0.00,,,0.00,0,Wunderground v.1.15,2013-10-04 08:50:00,
2013-10-04 04:56:00,64.7,62.9,30.09,SW,215,1.0,1.0,94,0.00,,,0.00,0,Wunderground v.1.15,2013-10-04 08:56:00,
2013-10-04 05:02:00,64.7,62.9,30.09,SW,215,1.0,1.0,94,0.00,,,0.00,0,Wunderground v.1.15,2013-10-04 09:02:00,
2013-10-04 05:08:00,64.7,62.9,30.09,SW,215,1.0,1.0,94,0.00,,,0.00,0,Wunderground v.1.15,2013-10-04 09:08:00,
2013-10-04 05:14:00,64.8,63.3,30.09,SW,215,1.0,2.0,95,0.00,,,0.00,0,Wunderground v.1.15,2013-10-04 09:14:00,
2013-10-04 05:21:00,64.8,63.3,30.10,SW,215,2.0,2.0,95,0.00,,,0.00,0,Wunderground v.1.15,2013-10-04 09:21:00,
2013-10-04 05:26:00,64.8,63.3,30.10,SW,215,1.0,2.0,95,0.00,,,0.00,0,Wunderground v.1.15,2013-10-04 09:26:00,
2013-10-04 05:32:00,64.8,63.3,30.10,SW,215,1.0,1.0,95,0.00,,,0.00,0,Wunderground v.1.15,2013-10-04 09:32:00,
2013-10-04 05:38:00,65.0,63.5,30.10,SW,215,1.0,1.0,95,0.00,,,0.00,0,Wunderground v.1.15,2013-10-04 09:38:00,
2013-10-04 05:44:00,65.0,63.5,30.10,SW,215,0.0,2.0,95,0.00,,,0.00,0,Wunderground v.1.15,2013-10-04 09:44:00,
2013-10-04 05:50:00,64.8,63.6,30.10,SW,215,0.0,2.0,96,0.00,,,0.00,0,Wunderground v.1.15,2013-10-04 09:50:00,
2013-10-04 05:56:00,64.8,63.3,30.10,SW,215,0.0,0.0,95,0.00,,,0.00,0,Wunderground v.1.15,2013-10-04 09:56:00,
2013-10-04 06:02:00,64.7,63.2,30.10,SW,215,0.0,0.0,95,0.00,,,0.00,0,Wunderground v.1.15,2013-10-04 10:02:00,
2013-10-04 06:08:00,64.5,63.0,30.10,SW,215,0.0,0.0,95,0.00,,,0.00,0,Wunderground v.1.15,2013-10-04 10:08:00,
2013-10-04 06:14:00,64.3,62.8,30.10,SW,215,0.0,0.0,95,0.00,,,0.00,0,Wunderground v.1.15,2013-10-04 10:14:00,
2013-10-04 06:20:00,64.2,62.7,30.10,SW,215,0.0,0.0,95,0.00,,,0.00,0,Wunderground v.1.15,2013-10-04 10:20:00,
2013-10-04 06:26:00,64.0,62.5,30.10,SW,215,0.0,0.0,95,0.00,,,0.00,0,Wunderground v.1.15,2013-10-04 10:26:00,
2013-10-04 06:32:00,63.9,62.4,30.10,SW,215,0.0,2.0,95,0.00,,,0.00,0,Wunderground v.1.15,2013-10-04 10:32:00,
2013-10-04 06:38:00,63.5,62.0,30.10,SW,215,1.0,2.0,95,0.00,,,0.00,0,Wunderground v.1.15,2013-10-04 10:38:00,
2013-10-04 06:44:00,63.5,62.3,30.10,SW,215,0.0,0.0,96,0.00,,,0.00,0,Wunderground v.1.15,2013-10-04 10:44:00,
2013-10-04 06:51:00,63.4,62.2,30.10,SW,215,0.0,0.0,96,0.00,,,0.00,0,Wunderground v.1.15,2013-10-04 10:51:00,
2013-10-04 06:56:00,63.2,62.0,30.10,SW,215,0.0,0.0,96,0.00,,,0.00,0,Wunderground v.1.15,2013-10-04 10:56:00,
2013-10-04 07:02:00,63.1,61.9,30.11,SW,215,0.0,0.0,96,0.00,,,0.00,0,Wunderground v.1.15,2013-10-04 11:02:00,
2013-10-04 07:08:00,62.9,61.7,30.11,SW,215,0.0,0.0,96,0.00,,,0.00,0,Wunderground v.1.15,2013-10-04 11:08:00,
2013-10-04 07:14:00,62.9,61.7,30.11,SW,215,0.0,0.0,96,0.00,,,0.00,5,Wunderground v.1.15,2013-10-04 11:14:00,
2013-10-04 07:20:00,62.7,61.5,30.11,SW,215,0.0,0.0,96,0.00,,,0.00,7,Wunderground v.1.15,2013-10-04 11:20:00,
2013-10-04 07:26:00,62.4,61.2,30.11,SW,215,0.0,0.0,96,0.00,,,0.00,11,Wunderground v.1.15,2013-10-04 11:26:00,
2013-10-04 07:32:00,62.4,61.2,30.11,SW,215,0.0,0.0,96,0.00,,,0.00,14,Wunderground v.1.15,2013-10-04 11:32:00,
2013-10-04 07:38:00,62.3,61.1,30.11,SW,215,0.0,0.0,96,0.00,,,0.00,19,Wunderground v.1.15,2013-10-04 11:38:00,
2013-10-04 07:44:00,62.3,61.1,30.11,SW,215,0.0,0.0,96,0.00,,,0.00,21,Wunderground v.1.15,2013-10-04 11:44:00,
2013-10-04 07:50:00,62.4,61.5,30.12,SW,215,0.0,0.0,97,0.00,,,0.00,26,Wunderground v.1.15,2013-10-04 11:50:00,
2013-10-04 07:56:00,62.6,61.7,30.12,SW,215,0.0,1.0,97,0.00,,,0.00,30,Wunderground v.1.15,2013-10-04 11:56:00,
2013-10-04 08:02:00,62.6,61.7,30.12,SE,134,0.0,0.0,97,0.00,,,0.00,35,Wunderground v.1.15,2013-10-04 12:02:00,
2013-10-04 08:08:00,62.7,61.8,30.12,SE,134,0.0,0.0,97,0.00,,,0.00,37,Wunderground v.1.15,2013-10-04 12:08:00,
2013-10-04 08:14:00,63.1,62.2,30.12,SE,134,0.0,0.0,97,0.00,,,0.00,37,Wunderground v.1.15,2013-10-04 12:14:00,
2013-10-04 08:20:00,63.2,62.3,30.12,SE,131,0.0,0.0,97,0.00,,,0.00,44,Wunderground v.1.15,2013-10-04 12:20:00,
2013-10-04 08:26:00,63.7,62.8,30.12,SE,131,0.0,0.0,97,0.00,,,0.00,46,Wunderground v.1.15,2013-10-04 12:26:00,
2013-10-04 08:32:00,64.2,63.6,30.13,SE,131,0.0,0.0,98,0.00,,,0.00,49,Wunderground v.1.15,2013-10-04 12:32:00,
2013-10-04 08:38:00,65.0,64.4,30.13,WNW,282,1.0,1.0,98,0.00,,,0.00,51,Wunderground v.1.15,2013-10-04 12:38:00,
2013-10-04 08:44:00,65.6,65.0,30.13,WSW,250,1.0,1.0,98,0.00,,,0.00,53,Wunderground v.1.15,2013-10-04 12:44:00,
2013-10-04 08:50:00,66.1,65.5,30.13,WSW,250,1.0,1.0,98,0.00,,,0.00,55,Wunderground v.1.15,2013-10-04 12:50:00,
2013-10-04 08:56:00,66.6,66.0,30.13,WSW,253,1.0,1.0,98,0.00,,,0.00,58,Wunderground v.1.15,2013-10-04 12:56:00,
2013-10-04 09:02:00,67.1,66.5,30.13,SW,229,1.0,1.0,98,0.00,,,0.00,58,Wunderground v.1.15,2013-10-04 13:02:00,
2013-10-04 09:08:00,67.8,67.2,30.13,WSW,243,1.0,2.0,98,0.00,,,0.00,121,Wunderground v.1.15,2013-10-04 13:08:00,
2013-10-04 09:14:00,69.8,68.0,30.13,WSW,243,1.0,5.0,94,0.00,,,0.00,283,Wunderground v.1.15,2013-10-04 13:14:00,
2013-10-04 09:20:00,71.5,67.8,30.13,WSW,243,0.0,0.0,88,0.00,,,0.00,310,Wunderground v.1.15,2013-10-04 13:20:00,
2013-10-04 09:26:00,72.7,67.6,30.13,WSW,241,1.0,2.0,84,0.00,,,0.00,331,Wunderground v.1.15,2013-10-04 13:26:00,
2013-10-04 09:32:00,73.7,67.9,30.13,WSW,241,1.0,2.0,82,0.00,,,0.00,352,Wunderground v.1.15,2013-10-04 13:32:00,
2013-10-04 09:38:00,74.6,68.0,30.13,NW,312,1.0,5.0,80,0.00,,,0.00,371,Wunderground v.1.15,2013-10-04 13:38:00,
2013-10-04 09:44:00,75.3,68.0,30.13,SW,232,2.0,5.0,78,0.00,,,0.00,387,Wunderground v.1.15,2013-10-04 13:44:00,
2013-10-04 09:50:00,76.0,68.3,30.13,SW,232,1.0,1.0,77,0.00,,,0.00,403,Wunderground v.1.15,2013-10-04 13:50:00,
2013-10-04 09:56:00,76.5,67.6,30.13,WNW,296,2.0,5.0,74,0.00,,,0.00,421,Wunderground v.1.15,2013-10-04 13:56:00,
2013-10-04 10:02:00,76.7,68.2,30.12,SW,216,3.0,3.0,75,0.00,,,0.00,428,Wunderground v.1.15,2013-10-04 14:02:00,
2013-10-04 10:08:00,77.2,67.9,30.12,WSW,248,3.0,3.0,73,0.00,,,0.00,454,Wunderground v.1.15,2013-10-04 14:08:00,
2013-10-04 10:14:00,77.6,67.4,30.12,WNW,292,2.0,5.0,71,0.00,,,0.00,466,Wunderground v.1.15,2013-10-04 14:14:00,
2013-10-04 10:21:00,78.3,68.1,30.12,NW,312,1.0,1.0,71,0.00,,,0.00,482,Wunderground v.1.15,2013-10-04 14:21:00,
2013-10-04 10:26:00,78.8,67.8,30.12,WSW,257,1.0,2.0,69,0.00,,,0.00,496,Wunderground v.1.15,2013-10-04 14:26:00,
2013-10-04 10:32:00,79.6,67.2,30.12,West,265,2.0,2.0,66,0.00,,,0.00,514,Wunderground v.1.15,2013-10-04 14:32:00,
2013-10-04 10:38:00,79.4,67.9,30.12,NW,315,1.0,4.0,68,0.00,,,0.00,524,Wunderground v.1.15,2013-10-04 14:38:00,
2013-10-04 10:44:00,79.9,68.0,30.12,WSW,246,2.0,3.0,67,0.00,,,0.00,537,Wunderground v.1.15,2013-10-04 14:44:00,
2013-10-04 10:50:00,80.3,67.0,30.12,West,265,3.0,3.0,64,0.00,,,0.00,547,Wunderground v.1.15,2013-10-04 14:50:00,
2013-10-04 10:56:00,80.9,67.6,30.12,WNW,288,2.0,3.0,64,0.00,,,0.00,563,Wunderground v.1.15,2013-10-04 14:56:00,
2013-10-04 11:02:00,80.9,67.1,30.12,WSW,246,1.0,2.0,63,0.00,,,0.00,574,Wunderground v.1.15,2013-10-04 15:02:00,
2013-10-04 11:08:00,80.9,67.6,30.12,WSW,256,1.0,2.0,64,0.00,,,0.00,586,Wunderground v.1.15,2013-10-04 15:08:00,
2013-10-04 11:14:00,81.6,67.8,30.12,SW,215,2.0,3.0,63,0.00,,,0.00,596,Wunderground v.1.15,2013-10-04 15:14:00,
2013-10-04 11:20:00,82.2,67.4,30.12,West,280,3.0,3.0,61,0.00,,,0.00,609,Wunderground v.1.15,2013-10-04 15:20:00,
2013-10-04 11:26:00,82.2,66.4,30.12,WNW,294,2.0,3.0,59,0.00,,,0.00,619,Wunderground v.1.15,2013-10-04 15:26:00,
2013-10-04 11:32:00,83.4,68.1,30.11,SW,233,2.0,5.0,60,0.00,,,0.00,625,Wunderground v.1.15,2013-10-04 15:32:00,
2013-10-04 11:38:00,84.0,68.1,30.11,SW,233,4.0,5.0,59,0.00,,,0.00,630,Wunderground v.1.15,2013-10-04 15:38:00,
2013-10-04 11:44:00,84.1,67.2,30.11,WSW,250,4.0,4.0,57,0.00,,,0.00,646,Wunderground v.1.15,2013-10-04 15:44:00,
2013-10-04 11:50:00,84.5,67.6,30.11,West,270,2.0,2.0,57,0.00,,,0.00,648,Wunderground v.1.15,2013-10-04 15:50:00,
2013-10-04 11:56:00,84.7,67.8,30.11,NW,308,3.0,7.0,57,0.00,,,0.00,658,Wunderground v.1.15,2013-10-04 15:56:00,
2013-10-04 12:02:00,84.1,66.7,30.11,WSW,241,3.0,5.0,56,0.00,,,0.00,658,Wunderground v.1.15,2013-10-04 16:02:00,
2013-10-04 12:08:00,84.1,66.2,30.11,WSW,246,2.0,5.0,55,0.00,,,0.00,665,Wunderground v.1.15,2013-10-04 16:08:00,
2013-10-04 12:14:00,84.9,66.4,30.11,WSW,240,2.0,6.0,54,0.00,,,0.00,669,Wunderground v.1.15,2013-10-04 16:14:00,
2013-10-04 12:21:00,84.9,64.8,30.10,NW,313,2.0,2.0,51,0.00,,,0.00,679,Wunderground v.1.15,2013-10-04 16:21:00,
2013-10-04 12:26:00,84.9,64.2,30.10,NNW,346,2.0,2.0,50,0.00,,,0.00,679,Wunderground v.1.15,2013-10-04 16:26:00,
2013-10-04 12:32:00,84.3,64.2,30.10,NW,325,3.0,3.0,51,0.00,,,0.00,676,Wunderground v.1.15,2013-10-04 16:32:00,
2013-10-04 12:38:00,84.3,66.4,30.10,SSW,208,3.0,3.0,55,0.00,,,0.00,695,Wunderground v.1.15,2013-10-04 16:38:00,
2013-10-04 12:44:00,85.3,65.7,30.10,WSW,240,3.0,6.0,52,0.00,,,0.00,699,Wunderground v.1.15,2013-10-04 16:44:00,
2013-10-04 12:50:00,86.1,66.4,30.10,SW,227,3.0,6.0,52,0.00,,,0.00,713,Wunderground v.1.15,2013-10-04 16:50:00,
2013-10-04 12:56:00,86.1,65.9,30.10,WNW,299,4.0,5.0,51,0.00,,,0.00,702,Wunderground v.1.15,2013-10-04 16:56:00,
2013-10-04 13:02:00,85.5,65.9,30.09,NNW,328,4.0,5.0,52,0.00,,,0.00,711,Wunderground v.1.15,2013-10-04 17:02:00,
2013-10-04 13:08:00,86.3,65.5,30.09,SSW,213,2.0,5.0,50,0.00,,,0.00,702,Wunderground v.1.15,2013-10-04 17:08:00,
2013-10-04 13:14:00,86.3,65.5,30.09,WSW,240,2.0,5.0,50,0.00,,,0.00,711,Wunderground v.1.15,2013-10-04 17:14:00,
2013-10-04 13:20:00,86.3,64.3,30.08,NW,316,3.0,5.0,48,0.00,,,0.00,721,Wunderground v.1.15,2013-10-04 17:20:00,
2013-10-04 13:26:00,86.5,65.7,30.08,WNW,302,2.0,5.0,50,0.00,,,0.00,748,Wunderground v.1.15,2013-10-04 17:26:00,
2013-10-04 13:32:00,86.3,63.7,30.07,WSW,239,3.0,12.0,47,0.00,,,0.00,707,Wunderground v.1.15,2013-10-04 17:32:00,
2013-10-04 14:02:00,87.0,64.3,30.06,WSW,244,3.0,5.0,47,0.00,,,0.00,718,Wunderground v.1.15,2013-10-04 18:02:00,
2013-10-04 14:08:00,87.2,64.5,30.06,WSW,244,3.0,10.0,47,0.00,,,0.00,709,Wunderground v.1.15,2013-10-04 18:08:00,
2013-10-04 14:14:00,87.2,64.5,30.06,WSW,248,4.0,5.0,47,0.00,,,0.00,709,Wunderground v.1.15,2013-10-04 18:14:00,
2013-10-04 14:20:00,86.3,63.7,30.06,NNW,332,4.0,4.0,47,0.00,,,0.00,709,Wunderground v.1.15,2013-10-04 18:20:00,
2013-10-04 14:26:00,85.9,63.3,30.06,WNW,292,5.0,9.0,47,0.00,,,0.00,709,Wunderground v.1.15,2013-10-04 18:26:00,
2013-10-04 14:32:00,86.3,63.1,30.06,WNW,285,4.0,5.0,46,0.00,,,0.00,709,Wunderground v.1.15,2013-10-04 18:32:00,
2013-10-04 14:38:00,85.7,61.3,30.06,WNW,291,2.0,5.0,44,0.00,,,0.00,693,Wunderground v.1.15,2013-10-04 18:38:00,
2013-10-04 14:44:00,85.7,61.3,30.06,SW,230,3.0,3.0,44,0.00,,,0.00,693,Wunderground v.1.15,2013-10-04 18:44:00,
2013-10-04 14:50:00,86.3,61.8,30.05,West,277,3.0,4.0,44,0.00,,,0.00,693,Wunderground v.1.15,2013-10-04 18:50:00,
2013-10-04 14:56:00,86.3,63.7,30.05,WSW,241,4.0,7.0,47,0.00,,,0.00,619,Wunderground v.1.15,2013-10-04 18:56:00,
2013-10-04 15:02:00,86.7,63.4,30.05,WSW,246,4.0,4.0,46,0.00,,,0.00,586,Wunderground v.1.15,2013-10-04 19:02:00,
2013-10-04 15:08:00,86.7,63.4,30.05,SW,229,3.0,5.0,46,0.00,,,0.00,579,Wunderground v.1.15,2013-10-04 19:08:00,
2013-10-04 15:14:00,86.3,64.9,30.05,SSW,202,3.0,3.0,49,0.00,,,0.00,588,Wunderground v.1.15,2013-10-04 19:14:00,
2013-10-04 15:20:00,87.0,64.3,30.05,South,184,3.0,3.0,47,0.00,,,0.00,586,Wunderground v.1.15,2013-10-04 19:20:00,
2013-10-04 15:26:00,86.5,63.3,30.05,WSW,248,2.0,7.0,46,0.00,,,0.00,396,Wunderground v.1.15,2013-10-04 19:26:00,
2013-10-04 15:32:00,86.5,63.9,30.04,WSW,237,2.0,2.0,47,0.00,,,0.00,558,Wunderground v.1.15,2013-10-04 19:32:00,
2013-10-04 15:38:00,86.5,63.3,30.04,SW,219,2.0,3.0,46,0.00,,,0.00,509,Wunderground v.1.15,2013-10-04 19:38:00,
2013-10-04 15:44:00,86.7,63.4,30.04,West,263,3.0,3.0,46,0.00,,,0.00,470,Wunderground v.1.15,2013-10-04 19:44:00,
2013-10-04 15:50:00,85.7,64.3,30.04,WSW,239,2.0,2.0,49,0.00,,,0.00,93,Wunderground v.1.15,2013-10-04 19:50:00,
2013-10-04 15:56:00,84.7,64.0,30.04,WSW,237,2.0,2.0,50,0.00,,,0.00,165,Wunderground v.1.15,2013-10-04 19:56:00,
2013-10-04 16:02:00,85.1,63.8,30.04,WSW,237,1.0,2.0,49,0.00,,,0.00,135,Wunderground v.1.15,2013-10-04 20:02:00,
2013-10-04 16:08:00,85.3,64.0,30.04,NW,323,3.0,6.0,49,0.00,,,0.00,109,Wunderground v.1.15,2013-10-04 20:08:00,
2013-10-04 16:14:00,85.1,63.8,30.04,NNW,344,3.0,5.0,49,0.00,,,0.00,90,Wunderground v.1.15,2013-10-04 20:14:00,
2013-10-04 16:20:00,85.1,63.2,30.04,NNW,344,1.0,1.0,48,0.00,,,0.00,88,Wunderground v.1.15,2013-10-04 20:20:00,
2013-10-04 16:26:00,85.1,64.4,30.04,WSW,243,2.0,3.0,50,0.00,,,0.00,90,Wunderground v.1.15,2013-10-04 20:26:00,
2013-10-04 16:32:00,85.1,63.8,30.04,SW,232,3.0,3.0,49,0.00,,,0.00,90,Wunderground v.1.15,2013-10-04 20:32:00,
2013-10-04 16:38:00,85.1,64.9,30.04,NW,318,3.0,3.0,51,0.00,,,0.00,83,Wunderground v.1.15,2013-10-04 20:38:00,
2013-10-04 16:44:00,84.9,64.2,30.04,SW,217,2.0,8.0,50,0.00,,,0.00,69,Wunderground v.1.15,2013-10-04 20:44:00,
2013-10-04 16:51:00,84.7,64.0,30.03,South,185,3.0,6.0,50,0.00,,,0.00,60,Wunderground v.1.15,2013-10-04 20:51:00,
2013-10-04 16:56:00,84.7,64.6,30.03,West,261,4.0,6.0,51,0.00,,,0.00,55,Wunderground v.1.15,2013-10-04 20:56:00,
2013-10-04 17:02:00,84.5,63.8,30.03,SSW,200,3.0,5.0,50,0.00,,,0.00,51,Wunderground v.1.15,2013-10-04 21:02:00,
2013-10-04 17:08:00,84.1,63.5,30.03,WSW,237,3.0,5.0,50,0.00,,,0.00,51,Wunderground v.1.15,2013-10-04 21:08:00,
2013-10-04 17:14:00,84.1,63.5,30.03,ENE,59,3.0,5.0,50,0.00,,,0.00,53,Wunderground v.1.15,2013-10-04 21:14:00,
2013-10-04 17:20:00,84.0,63.9,30.03,SW,222,2.0,2.0,51,0.00,,,0.00,58,Wunderground v.1.15,2013-10-04 21:20:00,
2013-10-04 17:26:00,84.0,64.5,30.03,SW,223,2.0,3.0,52,0.00,,,0.00,53,Wunderground v.1.15,2013-10-04 21:26:00,
2013-10-04 17:32:00,84.0,64.5,30.04,SW,217,3.0,5.0,52,0.00,,,0.00,48,Wunderground v.1.15,2013-10-04 21:32:00,
2013-10-04 17:38:00,84.0,64.5,30.04,SW,217,2.0,5.0,52,0.00,,,0.00,48,Wunderground v.1.15,2013-10-04 21:38:00,
2013-10-04 17:44:00,83.6,64.7,30.04,SE,145,2.0,2.0,53,0.00,,,0.00,40,Wunderground v.1.15,2013-10-04 21:44:00,
2013-10-04 17:50:00,83.4,65.0,30.04,SSW,213,1.0,5.0,54,0.00,,,0.00,37,Wunderground v.1.15,2013-10-04 21:50:00,
2013-10-04 17:56:00,83.2,64.8,30.04,WSW,248,2.0,5.0,54,0.00,,,0.00,33,Wunderground v.1.15,2013-10-04 21:56:00,
2013-10-04 18:02:00,82.8,65.5,30.04,WSW,248,2.0,2.0,56,0.00,,,0.00,33,Wunderground v.1.15,2013-10-04 22:02:00,
2013-10-04 18:08:00,82.4,64.6,30.04,WSW,248,1.0,5.0,55,0.00,,,0.00,28,Wunderground v.1.15,2013-10-04 22:08:00,
2013-10-04 18:14:00,82.2,64.9,30.04,SSW,193,1.0,5.0,56,0.00,,,0.00,26,Wunderground v.1.15,2013-10-04 22:14:00,
2013-10-04 18:20:00,81.8,64.6,30.04,SW,215,2.0,2.0,56,0.00,,,0.00,23,Wunderground v.1.15,2013-10-04 22:20:00,
2013-10-04 18:26:00,81.6,64.4,30.04,SW,215,2.0,3.0,56,0.00,,,0.00,23,Wunderground v.1.15,2013-10-04 22:26:00,
2013-10-04 18:32:00,81.1,64.4,30.05,SW,215,1.0,2.0,57,0.00,,,0.00,16,Wunderground v.1.15,2013-10-04 22:32:00,
2013-10-04 18:38:00,80.7,64.5,30.05,SW,215,1.0,2.0,58,0.00,,,0.00,14,Wunderground v.1.15,2013-10-04 22:38:00,
2013-10-04 18:44:00,80.3,65.1,30.05,SW,215,1.0,2.0,60,0.00,,,0.00,11,Wunderground v.1.15,2013-10-04 22:44:00,
2013-10-04 18:50:00,79.9,64.8,30.05,SW,215,1.0,1.0,60,0.00,,,0.00,7,Wunderground v.1.15,2013-10-04 22:50:00,
2013-10-04 18:56:00,79.4,65.2,30.05,SW,215,1.0,2.0,62,0.00,,,0.00,5,Wunderground v.1.15,2013-10-04 22:56:00,
2013-10-04 19:02:00,79.0,65.3,30.05,SW,215,0.0,1.0,63,0.00,,,0.00,0,Wunderground v.1.15,2013-10-04 23:02:00,
2013-10-04 19:08:00,78.5,65.3,30.05,SW,215,0.0,1.0,64,0.00,,,0.00,0,Wunderground v.1.15,2013-10-04 23:08:00,
2013-10-04 19:14:00,78.1,65.4,30.05,SW,215,0.0,0.0,65,0.00,,,0.00,0,Wunderground v.1.15,2013-10-04 23:14:00,
2013-10-04 19:20:00,77.6,65.3,30.06,SW,215,0.0,0.0,66,0.00,,,0.00,0,Wunderground v.1.15,2013-10-04 23:20:00,
2013-10-04 19:26:00,77.2,65.4,30.06,SW,215,0.0,0.0,67,0.00,,,0.00,0,Wunderground v.1.15,2013-10-04 23:26:00,
2013-10-04 19:32:00,76.7,65.3,30.06,SW,215,0.0,0.0,68,0.00,,,0.00,0,Wunderground v.1.15,2013-10-04 23:32:00,
2013-10-04 19:38:00,76.1,65.2,30.06,SW,215,0.0,0.0,69,0.00,,,0.00,0,Wunderground v.1.15,2013-10-04 23:38:00,
2013-10-04 19:44:00,75.8,65.3,30.06,SW,215,0.0,0.0,70,0.00,,,0.00,0,Wunderground v.1.15,2013-10-04 23:44:00,
2013-10-04 19:50:00,75.3,65.6,30.06,SW,215,0.0,0.0,72,0.00,,,0.00,0,Wunderground v.1.15,2013-10-04 23:50:00,
2013-10-04 19:56:00,74.7,65.5,30.06,SW,215,0.0,0.0,73,0.00,,,0.00,0,Wunderground v.1.15,2013-10-04 23:56:00,
2013-10-04 20:02:00,74.4,65.6,30.06,SW,215,0.0,0.0,74,0.00,,,0.00,0,Wunderground v.1.15,2013-10-05 00:02:00,
2013-10-04 20:08:00,74.0,65.6,30.06,SW,215,0.0,0.0,75,0.00,,,0.00,0,Wunderground v.1.15,2013-10-05 00:08:00,
2013-10-04 20:14:00,73.5,65.5,30.06,SW,215,0.0,0.0,76,0.00,,,0.00,0,Wunderground v.1.15,2013-10-05 00:14:00,
2013-10-04 20:21:00,73.2,65.6,30.07,SW,215,0.0,0.0,77,0.00,,,0.00,0,Wunderground v.1.15,2013-10-05 00:21:00,
2013-10-04 20:26:00,73.0,65.4,30.07,SW,215,0.0,0.0,77,0.00,,,0.00,0,Wunderground v.1.15,2013-10-05 00:26:00,
2013-10-04 20:32:00,72.7,65.4,30.07,SW,215,0.0,0.0,78,0.00,,,0.00,0,Wunderground v.1.15,2013-10-05 00:32:00,
2013-10-04 20:38:00,72.3,65.4,30.07,SW,215,0.0,0.0,79,0.00,,,0.00,0,Wunderground v.1.15,2013-10-05 00:38:00,
2013-10-04 20:44:00,72.0,65.5,30.07,SW,215,0.0,0.0,80,0.00,,,0.00,0,Wunderground v.1.15,2013-10-05 00:44:00,
2013-10-04 20:50:00,71.6,65.1,30.08,SW,215,0.0,0.0,80,0.00,,,0.00,0,Wunderground v.1.15,2013-10-05 00:50:00,
2013-10-04 20:56:00,71.5,65.4,30.08,SW,215,0.0,0.0,81,0.00,,,0.00,0,Wunderground v.1.15,2013-10-05 00:56:00,
2013-10-04 21:02:00,71.1,65.3,30.08,SW,215,0.0,1.0,82,0.00,,,0.00,0,Wunderground v.1.15,2013-10-05 01:02:00,
2013-10-04 21:08:00,70.9,65.5,30.08,SW,215,0.0,1.0,83,0.00,,,0.00,0,Wunderground v.1.15,2013-10-05 01:08:00,
2013-10-04 21:14:00,70.8,65.7,30.08,SW,215,0.0,0.0,84,0.00,,,0.00,0,Wunderground v.1.15,2013-10-05 01:14:00,
2013-10-04 21:20:00,70.4,65.3,30.07,SW,215,0.0,0.0,84,0.00,,,0.00,0,Wunderground v.1.15,2013-10-05 01:20:00,
2013-10-04 21:26:00,70.3,65.6,30.07,SW,215,0.0,0.0,85,0.00,,,0.00,0,Wunderground v.1.15,2013-10-05 01:26:00,
2013-10-04 21:32:00,70.1,65.4,30.08,SW,215,0.0,0.0,85,0.00,,,0.00,0,Wunderground v.1.15,2013-10-05 01:32:00,
2013-10-04 21:38:00,69.9,65.5,30.08,SW,215,0.0,0.0,86,0.00,,,0.00,0,Wunderground v.1.15,2013-10-05 01:38:00,
2013-10-04 21:44:00,69.8,65.4,30.08,SW,215,0.0,0.0,86,0.00,,,0.00,0,Wunderground v.1.15,2013-10-05 01:44:00,
2013-10-04 21:50:00,69.4,65.4,30.08,SW,215,0.0,0.0,87,0.00,,,0.00,0,Wunderground v.1.15,2013-10-05 01:50:00,
2013-10-04 21:56:00,69.3,65.3,30.08,SW,215,0.0,0.0,87,0.00,,,0.00,0,Wunderground v.1.15,2013-10-05 01:56:00,
2013-10-04 22:02:00,69.1,65.4,30.09,SW,215,0.0,0.0,88,0.00,,,0.00,0,Wunderground v.1.15,2013-10-05 02:02:00,
2013-10-04 22:08:00,68.9,65.2,30.09,SW,215,0.0,0.0,88,0.00,,,0.00,0,Wunderground v.1.15,2013-10-05 02:08:00,
2013-10-04 22:14:00,68.9,65.5,30.09,SW,215,0.0,0.0,89,0.00,,,0.00,0,Wunderground v.1.15,2013-10-05 02:14:00,
2013-10-04 22:20:00,68.6,65.2,30.09,SW,215,0.0,0.0,89,0.00,,,0.00,0,Wunderground v.1.15,2013-10-05 02:20:00,
2013-10-04 22:26:00,68.6,65.2,30.09,SW,215,0.0,0.0,89,0.00,,,0.00,0,Wunderground v.1.15,2013-10-05 02:26:00,
2013-10-04 22:32:00,68.4,65.4,30.09,SW,215,0.0,0.0,90,0.00,,,0.00,0,Wunderground v.1.15,2013-10-05 02:32:00,
2013-10-04 22:38:00,68.3,65.3,30.09,SW,215,0.0,0.0,90,0.00,,,0.00,0,Wunderground v.1.15,2013-10-05 02:38:00,
2013-10-04 22:44:00,68.1,65.1,30.09,SW,215,0.0,0.0,90,0.00,,,0.00,0,Wunderground v.1.15,2013-10-05 02:44:00,
2013-10-04 22:51:00,67.9,64.9,30.08,SW,215,0.0,0.0,90,0.00,,,0.00,0,Wunderground v.1.15,2013-10-05 02:51:00,
2013-10-04 22:56:00,67.8,65.1,30.08,SW,215,0.0,0.0,91,0.00,,,0.00,0,Wunderground v.1.15,2013-10-05 02:56:00,
2013-10-04 23:02:00,67.6,64.9,30.08,SW,215,0.0,0.0,91,0.00,,,0.00,0,Wunderground v.1.15,2013-10-05 03:02:00,
2013-10-04 23:08:00,67.6,64.9,30.08,SW,215,0.0,0.0,91,0.00,,,0.00,0,Wunderground v.1.15,2013-10-05 03:08:00,
2013-10-04 23:14:00,67.4,64.7,30.08,SW,215,0.0,0.0,91,0.00,,,0.00,0,Wunderground v.1.15,2013-10-05 03:14:00,
2013-10-04 23:20:00,67.4,65.0,30.08,SW,215,0.0,0.0,92,0.00,,,0.00,0,Wunderground v.1.15,2013-10-05 03:20:00,
2013-10-04 23:26:00,67.3,64.9,30.08,SW,215,0.0,0.0,92,0.00,,,0.00,0,Wunderground v.1.15,2013-10-05 03:26:00,
2013-10-04 23:32:00,67.3,64.9,30.09,SW,215,0.0,2.0,92,0.00,,,0.00,0,Wunderground v.1.15,2013-10-05 03:32:00,
2013-10-04 23:38:00,67.1,64.7,30.09,SW,215,0.0,2.0,92,0.00,,,0.00,0,Wunderground v.1.15,2013-10-05 03:38:00,
2013-10-04 23:44:00,66.9,64.8,30.09,SW,215,0.0,0.0,93,0.00,,,0.00,0,Wunderground v.1.15,2013-10-05 03:44:00,
2013-10-04 23:50:00,66.8,64.7,30.09,SW,215,0.0,0.0,93,0.00,,,0.00,0,Wunderground v.1.15,2013-10-05 03:50:00,
2013-10-04 23:56:00,66.6,64.5,30.09,SW,215,0.0,0.0,93,0.00,,,0.00,0,Wunderground v.1.15,2013-10-05 03:56:00,